Regional Weather Roundup
Issued by NWS Sterling, VA

Home | Current Version | Previous Version | Graphics & Text | Print | Product List | Glossary On
Versions: 1 2 3 4 5 6 7 8 9 10 11 12 13 14 15 16 17 18 19 20 21 22 23 24 25 26 27 28 29 30 31 32 33 34 35 36 37 38 39 40 41 42 43 44 45 46 47 48 49 50
000
ASUS41 KLWX 241611
RWRLWX

REGIONAL WEATHER ROUNDUP
NATIONAL WEATHER SERVICE BALTIMORE MD/WASHINGTON DC
1200 PM EDT WED MAY 24 2017

Note: "FAIR" indicates few or no clouds below 12,000 feet
with no significant weather and/or obstructions to visibility.
 TC=TEMPERATURE CELSIUS

 * =Non NWS site. Station does not report precipitation (e.g. rain,
    snow, etc.), thunder, or fog.

DCZ001-MDZ009-015-VAZ040>042-051-053>054-241700-
WASHINGTON METRO

CITY           SKY/WX    TMP DP  RH WIND       PRES   REMARKS
WASHINGTON NAT CLOUDY    64  57  78 SE3       29.75R
DULLES         CLOUDY    63  54  72 SE8       29.74S
ANDREWS AFB    PTSUNNY   62  56  79 E7        29.74R
FT BELVOIR     CLOUDY    64  55  72 E7        29.75S
QUANTICO       PTSUNNY   64  59  83 E3        29.75F
COLLEGE PARK*  CLOUDY    63  55  77 SE3       29.74R
LEESBURG*      CLOUDY    64  59  82 S8        29.75S
MANASSAS*      CLOUDY    62  57  83 SE7       29.76R
GAITHERSBURG*  CLOUDY    67  55  65 SE10G16   29.74F

$$

MDZ006>007-011-014-241700-
BALTIMORE METRO

CITY           SKY/WX    TMP DP  RH WIND       PRES   REMARKS
BWI AIRPORT    CLOUDY    63  55  75 E8        29.75R
MD SCIENCE CTR   N/A     66  55  67 MISG      29.75R
MARTIN STATE   CLOUDY    64  57  77 E6        29.76R
ANNAPOLIS      CLOUDY    64  57  78 E5        29.76R
FORT MEADE*    CLOUDY    63  54  72 SE7       29.77R

$$

MDZ012-015-019>023-241700-
MARYLAND EASTERN SHORE

CITY           SKY/WX    TMP DP  RH WIND       PRES   REMARKS
OCEAN CITY     CLOUDY    59  55  87 NE12G21   29.74R
SALISBURY      CLOUDY    61  58  90 NE12      29.73F
BAY BRIDGE AP* CLOUDY    63  55  77 E5        29.76R
CAMBRIDGE*     PTSUNNY   61  59  94 NE3       29.75R FOG
EASTON*        CLOUDY    64  57  77 SE8       29.79R

$$

MDZ017>025-241700-
SOUTHERN MARYLAND

CITY           SKY/WX    TMP DP  RH WIND       PRES   REMARKS
PATUXENT RIVER DRIZZLE   61  61 100 E7        29.74R
ST INIGOES     NOT AVBL
LEONARDTOWN*   CLOUDY    59  57  94 NE5       29.75F

$$

MDZ003>005-241700-
NORTH CENTRAL MARYLAND

CITY           SKY/WX    TMP DP  RH WIND       PRES   REMARKS
FREDERICK*     PTSUNNY   68  57  68 CALM      29.76R
HAGERSTOWN APT PTSUNNY   67  52  58 E7        29.72S
WESTMINSTER*   PTSUNNY   70  55  60 E5        29.74S

$$

MDZ501>502-241700-
WESTERN MARYLAND

CITY           SKY/WX    TMP DP  RH WIND       PRES   REMARKS
OAKLAND*       FOG       50  50 100 SE16G24   29.70S VSB 1
CUMBERLAND*    CLOUDY    61  55  82 SE5       29.75S

$$

VAZ025>031-241700-
SHENANDOAH VALLEY

CITY           SKY/WX    TMP DP  RH WIND       PRES   REMARKS
WINCHESTER*    CLOUDY    61  54  77 SE10      29.73S
FRONT ROYAL*   CLOUDY    63  55  77 SE6       29.72S
LURAY*         CLOUDY    63  55  77 S5        29.73S
NEW MARKET*    CLOUDY    60  56  88 CALM      29.73S
STAUNTON*      CLOUDY    58  54  85 CALM      29.74F
WAYNESBORO*    CLOUDY    56  56 100 SE7       29.73F

$$

WVZ021-048>050-054>055-241700-
EASTERN WEST VIRGINIA PANHANDLE

CITY           SKY/WX    TMP DP  RH WIND       PRES   REMARKS
MARTINSBURG    CLOUDY    65  55  70 VRB6      29.72S
PETERSBURG*    CLOUDY    60  58  94 CALM      29.71F FOG

$$

VAZ036>039-050-241700-
CENTRAL FOOTHILLS

CITY           SKY/WX    TMP DP  RH WIND       PRES   REMARKS
CHARLOTTESVILL LGT RAIN  61  58  90 NE7       29.72F FOG
CULPEPER*      CLOUDY    62  59  90 SE3       29.76S
ORANGE*        CLOUDY    59  57  94 CALM      29.75S FOG
GORDONSVILLE*  CLOUDY    59  59  97 NE5       29.73F
WARRENTON*     CLOUDY    63  56  78 SE3       29.75R

$$

VAZ055>057-241700-
NORTH AND CENTRAL PIEDMONT

CITY           SKY/WX    TMP DP  RH WIND       PRES   REMARKS
FREDERICKSBRG* CLOUDY    61  61 100 E3        29.74S
STAFFORD*      CLOUDY    60  59  97 E5        29.79S FOG

$$

NCZ024-NYZ072-PAZ021-071-VAZ022-071-241700-
OTHER REGIONAL OBSERVATIONS

CITY           SKY/WX    TMP DP  RH WIND       PRES   REMARKS
NEW YORK CITY  PTSUNNY   67  53  61 NE10      29.78F
PHILADELPHIA   PTSUNNY   66  54  65 E13       29.75S
PITTSBURGH     LGT RAIN  65  54  67 S14       29.61F
ROANOKE        DRIZZLE   58  58 100 E10       29.71F FOG
RICHMOND       CLOUDY    64  60  87 E9        29.71F
RALEIGH        DRIZZLE   69  66  90 S6        29.69S

$$

ANZ530>537-241700-
MARINE OBSERVATIONS

STATION/POSITION TIME  TEMP    WIND        PRES
                       AIR SEA DIR/SP/G
                 (UTC) (F)     (DEG/KT/KT) (MB)
THOMAS PT LIGHT  1600   60 65   40/  6/  7   N/A
BALT KEY BRIDGE  1548   62      60/  7/  8 1007.2R
COVE POINT       1548   60     120/  5/  9 1007.8R
LEWISETTA        1548   61 66   80/  6/  9 1006.9F
SOLOMONS ISLAND  1542   60 67   70/  6/  9   N/A
PINEY POINT      1548           80/  4/  5   N/A

$$




USA.gov is the U.S. government's official web portal to all federal, state and local government web resources and services.